SL-14 DEB, 45315

Orbit data source: Space-Track

SL-14 DEB, 45315 is space debris in LEO originally from a launch on Thu, 15 Aug 1991 UTC launched from the Plesetsk Missile And Space Complex (PKMTR). Debris objects in space refer to the collection of defunct objects orbiting the Earth. Examples of debris include non-operational satellites, rocket bodies, and fragments generated from explosions, collisions, or faulty payload assembly.

Loading next visibility...
Identifier
45315, 1991-056BD
Orbit
LEO
Country
Flag of CISCIS
Related business
Manufacturer
Unknown
Mission
Spacecraft
Bus & Motor
Unknown
Mass
Unknown
Launch date (UTC)
1991-08-15 (35 years ago)
Launch vehicle
Unknown
Launch site
Plesetsk Missile And Space Complex (PKMTR)
Object type
Payload
Rocket body
Debris
Shape & HBR
Unknown shape, 0.1 m
Radar Cross Section
Medium (>0.1 m² and <1 m²)

Expand to show TLE details & history
Last TLE update: 12 hours ago

TLE from 12 hours ago
0 SL-14 DEB
1 45315U 91056BD  26257.49163488  .00000241  00000-0  60611-3 0  9998
2 45315  82.5559  84.1739 0028252 332.0645  27.8959 13.15600646314356
Epoch: 2026-09-14T11:47Z
TLE epoch observation values (Epoch: 2026-09-14T11:47:57.253Z)
Latitude
0.00003°
Longitude
-86.28581°
Altitude
1,185.46 km
Speed
7.27 km/s
True Right ascension
05h 36m 41s
True Declination
0° 00' 00"
Sunlit
Object was in daylight at epoch
Visualization orbit readout
Latitude
Unknown
Longitude
Unknown
Altitude
Unknown
Speed
Unknown
Apparent Right ascension
Unknown
Apparent Declination
Unknown
Sunlit
N/A
Visualization observer readout
Local Sidereal Time
16:03:39
Azimuth
Unknown
Elevation
Unknown
Doppler factor
Unknown
Orbital elements
Apogee altitude
1,220.224 km
Perigee altitude
1,177.411 km
Semi-major axis
7,576.954 km
Eccentricity
0.00283
Inclination
82.5559°
RAAN
84.1739°
Arg. of periapsis
332.0645°
True anomaly
28.04784°
Mean anomaly
27.8959°
Eccentric anomaly
27.97182°
Mean motion
3.2908 °/min
Orbital period
109.4 mins
BSTAR
0.00060611
Loading maneuver chart data...
Computing Atmospheric mass density...
Loading historical data...
Loading historical data...
Loading historical data...
Loading historical data...
Loading historical data...
Loading historical data...
Loading historical data...

Documentation

Showing up to 5 results
|